www.pogodaiklimat.ru

Погода и климат >> Архив погоды >> Франция >> Пуатье


ПОГОДА в Пуатье

  • Прогноз погоды в Пуатье
  • Монитор погоды в Пуатье

АРХИВ ПОГОДЫ в Пуатье

Время (UTC), дата Ветер
(напр.,м/с)
 
Видим.   Явления Облачность Т
(С)
Тd
(С)
f
(%)
Тe
(С)
Тes
(С)
Комфортность P
(гПа)
Po
(гПа)
Тmin
(С)
Tmax
(С)
R
(мм)
R24
(мм)
S
(см)
01 13.09 СЗ 1 60 км н/о +14.4 +12.6 89 +15 +15 1031.7 1017.2
02 13.09 СЗ 2 60 км н/о +14.4 +13.1 92 +14 +14 1031.6 1017.1
03 13.09 С 3
{4}
50 км н/о +14.0 +12.9 93 +13 +13 1031.2 1016.7 0
04 13.09 СЗ 1 40 км н/о +13.3 +12.4 94 +13 +13 1031.0 1016.5
05 13.09 СЗ 1 30 км н/о +13.0 +12.2 95 +13 +13 1031.3 1016.7
06 13.09 С 2
{3}
19 км н/о +13.2 +12.7 97 +12 +12 1031.6 1017.0 +12.6 +23.6 0
07 13.09 С 1 19 км н/о +15.5 +14.7 95 +16 +16 1031.5 1017.1
08 13.09 С 2 45 км н/о +18.5 +15.4 82 +20 +20 1031.5 1017.2
09 13.09 С 4
{7}
19 км н/о +21.3 +15.2 68 +24 +24 комфорт 1031.1 1017.0 0
10 13.09 СВ 2 35 км н/о +24.1 +15.0 57 +27 +27 жарко 1030.7 1016.7
11 13.09 С 3 30 км н/о +25.7 +14.8 51 +28 +28 жарко 1030.1 1016.2
12 13.09 С 6
{10}
30 км н/о +27.5 +14.5 45 +30 +30 жарко 1029.6 1015.8 0
13 13.09 СВ 3 30 км н/о +29.0 +13.2 38 +31 +31 жарко 1029.1 1015.3
14 13.09 СВ 3 30 км н/о +30.0 +12.9 35 +31 +31 жарко 1028.3 1014.6
15 13.09 СВ 5
{10}
45 км н/о +30.0 +13.3 36 +31 +31 жарко 1027.6 1013.9 0
16 13.09 СВ 3 30 км н/о +29.7 +13.5 37 +31 +31 жарко 1027.2 1013.5
17 13.09 СВ 3 60 км н/о +28.8 +13.9 40 +31 +31 жарко 1027.7 1013.9
18 13.09 СВ 5
{8}
60 км н/о +26.9 +14.0 45 +29 +29 жарко 1027.6 1013.8 +13.3 +30.3 0
19 13.09 С 3 60 км н/о +23.9 +14.6 56 +27 +27 жарко 1027.7 1013.7
20 13.09 СВ 3 60 км н/о +23.2 +14.5 58 +27 +27 душно 1028.1 1014.1
21 13.09 СВ 4
{6}
60 км н/о +21.8 +14.4 63 +25 +25 комфорт 1028.4 1014.3 0
22 13.09 СВ 2 60 км н/о +21.2 +14.4 65 +24 +24 комфорт 1028.4 1014.3
23 13.09 СВ 2 60 км н/о +20.5 +13.9 66 +24 +24 комфорт 1028.3 1014.2
00 14.09 СВ 3
{6}
60 км н/о +18.9 +13.5 71 +20 +20 1028.5 1014.3 0
01 14.09 СВ 2 60 км н/о +18.3 +13.6 74 +19 +19 1028.3 1014.0
02 14.09 СВ 2 60 км н/о +17.4 +13.5 78 +18 +18 1028.2 1013.9
03 14.09 СВ 3
{5}
60 км н/о +16.5 +13.6 83 +16 +16 1027.7 1013.4 0
04 14.09 СВ 2 60 км н/о +16.0 +13.8 87 +16 +16 1027.7 1013.3
05 14.09 С 2 60 км н/о +15.7 +13.7 88 +16 +16 1027.7 1013.3
06 14.09 СВ 5
{6}
55 км 10/0
[]
+15.5 +13.7 89 +14 +14 1028.1 1013.7 +15.5 +26.8 0
07 14.09 СВ 2 50 км 8/8
[]
+17.0 +14.3 84 +17 +17 1028.1 1013.8
08 14.09 СВ 2 50 км н/о +19.4 +14.4 73 +22 +22 комфорт 1028.2 1014.0
09 14.09 СВ 5
{8}
60 км н/о +21.0 +14.2 65 +24 +24 комфорт 1027.7 1013.6 0
10 14.09 СВ 2 60 км н/о +24.2 +15.1 57 +27 +27 жарко 1027.2 1013.3
11 14.09 СВ 3 55 км н/о +26.3 +14.7 49 +29 +29 жарко 1026.4 1012.6
12 14.09 СВ 5
{8}
50 км н/о +27.7 +14.7 45 +30 +30 жарко 1026.0 1012.2 0
13 14.09 В 2 55 км н/о +28.5 +14.7 43 +31 +31 душно 1025.3 1011.6
14 14.09 СВ 2 60 км н/о +29.4 +14.8 41 +32 +32 душно 1024.9 1011.2
15 14.09 СВ 5
{10}
50 км н/о +28.8 +14.6 42 +31 +31 жарко 1024.4 1010.7 0
16 14.09 СВ 3 45 км н/о +28.8 +14.6 42 +31 +31 жарко 1024.3 1010.6
17 14.09 СВ 3 60 км н/о +27.8 +14.4 44 +30 +30 жарко 1024.3 1010.6
18 14.09 СВ 4
{7}
60 км н/о +25.8 +14.3 49 +28 +28 жарко 1024.5 1010.7 +15.5 +29.6 0
19 14.09 С 2 60 км н/о +23.0 +14.0 57 +26 +26 жарко 1025.0 1011.0
20 14.09 С 1 60 км н/о +22.0 +14.1 61 +25 +25 комфорт 1025.2 1011.2
21 14.09 В 1
{3}
60 км н/о +20.9 +13.3 62 +25 +25 комфорт 1025.2 1011.1 0
22 14.09 С 1 60 км н/о +19.7 +13.6 68 +23 +23 комфорт 1024.9 1010.8
23 14.09 С 1 60 км н/о +18.0 +13.3 74 +20 +20 1024.8 1010.6
00 15.09 С 1
{3}
60 км н/о +16.6 +13.1 80 +17 +17 1024.8 1010.5 0
01 15.09 С 1 60 км н/о +16.8 +13.1 79 +18 +18 1024.6 1010.3
02 15.09 С 1 60 км н/о +16.0 +12.9 82 +17 +17 1024.3 1010.0
03 15.09 С 2
{3}
60 км н/о +15.3 +12.4 83 +15 +15 1024.0 1009.7 0
04 15.09 С 1 55 км н/о +15.0 +12.5 85 +15 +15 1023.8 1009.4
05 15.09 С 1 60 км н/о +14.8 +12.5 86 +15 +15 1023.8 1009.4
06 15.09 С 1
{2}
55 км н/о +14.0 +11.9 87 +14 +14 1024.3 1009.9 +14.0 +25.7 0
07 15.09 С 1 40 км н/о +16.9 +14.0 83 +18 +18 1024.2 1009.9
08 15.09 СВ 1 50 км н/о +20.5 +13.9 66 +24 +24 комфорт 1024.4 1010.3
09 15.09 С 3
{4}
60 км н/о +23.7 +14.9 58 +27 +27 жарко 1024.1 1010.2 0
10 15.09 СВ 2 55 км н/о +26.3 +15.0 50 +29 +29 жарко 1023.8 1010.0
11 15.09 СВ 2 40 км н/о +28.2 +15.1 45 +31 +31 душно 1023.1 1009.4
12 15.09 С 3
{7}
19 км н/о +29.8 +14.7 40 +32 +32 душно 1022.3 1008.7 0
13 15.09 СВ 2 55 км н/о +30.7 +14.3 37 +33 +33 душно 1021.8 1008.2
14 15.09 СВ 2 60 км н/о +31.4 +14.1 35 +33 +33 жарко 1021.0 1007.5
15 15.09 СВ 3
{8}
60 км н/о +31.5 +12.8 32 +32 +32 жарко 1020.4 1006.9 0
16 15.09 С 2 60 км н/о +31.1 +12.5 32 +32 +32 жарко 1020.0 1006.4
17 15.09 С 2 50 км н/о +30.0 +12.4 34 +31 +31 жарко 1019.9 1006.3
18 15.09 С 4
{6}
60 км н/о +27.3 +12.5 40 +29 +29 жарко 1020.0 1006.3 +14.0 +31.7 0
19 15.09 С 2 60 км н/о +23.9 +12.2 48 +26 +26 жарко 1020.6 1006.7
20 15.09 С 2 60 км н/о +22.6 +11.6 50 +25 +25 комфорт 1021.0 1007.0
21 15.09 С 3
{4}
60 км н/о +21.8 +10.9 50 +24 +24 комфорт 1021.4 1007.4 0
22 15.09 С 2 60 км н/о +20.4 +10.8 54 +23 +23 комфорт 1021.4 1007.3
23 15.09 СВ 1 60 км н/о +19.9 +10.3 54 +22 +22 комфорт 1021.2 1007.1
00 16.09 С 3
{4}
60 км н/о +18.4 +10.7 61 +19 +19 1021.2 1007.0 0
01 16.09 С 1 60 км н/о +17.7 +10.6 63 +19 +19 1021.0 1006.8
02 16.09 С 1 60 км н/о +16.8 +10.4 66 +18 +18 1020.8 1006.6
03 16.09 СЗ 2
{3}
60 км н/о +16.5 +10.6 68 +17 +17 1020.9 1006.6 0
04 16.09 СЗ 1 60 км н/о +16.0 +10.3 69 +17 +17 1020.5 1006.2
05 16.09 СЗ 1 55 км н/о +15.2 +10.0 71 +16 +16 1020.4 1006.1
06 16.09 СЗ 3
{4}
55 км н/о +14.9 +10.3 74 +14 +14 1020.6 1006.3 +14.7 +27.3 0
07 16.09 С 2 19 км н/о +16.8 +10.6 67 +17 +17 1021.0 1006.8
08 16.09 С 2 40 км н/о +20.4 +10.5 53 +23 +23 комфорт 1021.3 1007.2
09 16.09 С 3
{5}
50 км н/о +23.5 +11.2 46 +25 +25 комфорт 1021.3 1007.4 0
10 16.09 СВ 2 50 км н/о +26.1 +12.2 42 +28 +28 жарко 1020.8 1007.0
11 16.09 СВ 2 60 км н/о +28.9 +12.3 36 +30 +30 жарко 1020.2 1006.5
12 16.09 С 4
{7}
55 км н/о +30.3 +11.8 32 +31 +31 жарко 1019.6 1006.0 0
13 16.09 С 2 50 км н/о +31.0 +10.9 29 +31 +31 жарко 1018.9 1005.4
14 16.09 СВ 2 55 км н/о +31.7 +11.0 28 +32 +32 жарко 1018.4 1004.9
15 16.09 С 5
{8}
50 км н/о +31.6 +10.3 27 +31 +31 жарко 1018.1 1004.6 0
16 16.09 С 2 45 км н/о +31.3 +10.1 27 +31 +31 жарко 1017.7 1004.2
17 16.09 С 3 55 км н/о +29.9 +9.9 29 +30 +30 жарко 1017.8 1004.2
18 16.09 С 3
{6}
60 км н/о +27.0 +9.8 34 +27 +27 жарко 1018.2 1004.5 +15.0 +32.0 0
19 16.09 С 2 60 км н/о +24.1 +10.0 41 +25 +25 комфорт 1019.0 1005.1
20 16.09 С 2 60 км н/о +22.9 +11.0 47 +25 +25 комфорт 1019.2 1005.3
21 16.09 С 3
{5}
60 км н/о +21.8 +10.9 50 +24 +24 комфорт 1019.7 1005.7 0
22 16.09 С 2 60 км н/о +19.7 +10.1 54 +22 +22 комфорт 1019.9 1005.8
23 16.09 С 2 60 км н/о +19.0 +8.3 50 +20 +20 1019.8 1005.7
00 17.09 С 3
{6}
60 км н/о +17.1 +6.3 49 +17 +17 1019.9 1005.7 0
01 17.09 С 2 60 км н/о +16.8 +7.4 54 +17 +17 1019.9 1005.7
02 17.09 С 2 60 км н/о +14.7 +9.7 72 +15 +15 1019.9 1005.6
03 17.09 С 3
{4}
40 км н/о +14.2 +11.2 82 +13 +13 1019.7 1005.4 0
04 17.09 С 1 30 км н/о +13.8 +11.7 87 +14 +14 1019.7 1005.3
05 17.09 С 1 19 км н/о +13.1 +11.5 90 +13 +13 1019.7 1005.3
06 17.09 С 2
{4}
8000 м н/о +13.2 +12.1 93 +12 +12 1020.0 1005.6 +13.0 +26.8 0
07 17.09 С 2 14 км н/о +15.2 +13.6 90 +15 +15 1020.2 1005.9
08 17.09 СВ 3 18 км н/о +17.3 +13.8 80 +17 +17 1020.5 1006.3
09 17.09 С 4
{7}
19 км н/о +19.7 +13.6 68 +21 +21 комфорт 1020.5 1006.4 0
10 17.09 С 3 21 км н/о +22.5 +13.8 58 +26 +26 жарко 1020.2 1006.3
11 17.09 СВ 3 20 км н/о +23.9 +14.0 54 +26 +26 жарко 1019.8 1005.9
12 17.09 С 6
{9}
22 км н/о +26.2 +13.7 46 +28 +28 жарко 1019.1 1005.3 0
13 17.09 СВ 3 22 км н/о +26.9 +14.0 45 +29 +29 жарко 1018.5 1004.8
14 17.09 СВ 3 24 км н/о +27.4 +13.0 41 +29 +29 жарко 1018.2 1004.5
15 17.09 СВ 7
{11}
24 км н/о +27.2 +12.0 39 +28 +28 жарко 1017.8 1004.1 0
16 17.09 СВ 4 23 км н/о +26.5 +13.3 44 +28 +28 жарко 1017.6 1003.9
17 17.09 С 5 28 км н/о +24.0 +13.8 53 +26 +26 жарко 1018.0 1004.2
18 17.09 СВ 8
{12}
60 км н/о +21.8 +13.2 58 +24 +24 комфорт 1018.5 1004.5 +13.3 +27.8 0
19 17.09 СВ 3 60 км н/о +20.4 +12.9 62 +23 +23 комфорт 1018.9 1004.9
20 17.09 СВ 3 60 км н/о +19.6 +12.4 63 +21 +21 комфорт 1019.4 1005.3
21 17.09 СВ 4
{7}
60 км н/о +18.4 +12.2 67 +19 +19 1019.5 1005.4 0
22 17.09 СВ 2 60 км н/о +17.6 +11.8 69 +18 +18 1019.6 1005.4
23 17.09 СВ 3 60 км н/о +17.0 +11.3 69 +17 +17 1019.6 1005.4
00 18.09 СВ 5
{8}
60 км н/о +16.5 +9.7 64 +16 +16 1019.8 1005.6 0
01 18.09 СВ 3 60 км н/о +16.2 +9.1 63 +16 +16 1020.0 1005.7
02 18.09 СВ 3 60 км 10/10
[]
+15.4 +8.6 64 +15 +15 1019.6 1005.3
03 18.09 СВ 7
{11}
60 км н/о +14.8 +8.1 64 +13 +13 1019.5 1005.2 0
04 18.09 СВ 3 60 км н/о +13.9 +7.9 67 +13 +13 1019.6 1005.2
05 18.09 СВ 3 55 км н/о +13.2 +7.6 69 +12 +12 1019.8 1005.4
06 18.09 СВ 7
{10}
45 км н/о +12.7 +7.6 71 +10 +10 1020.2 1005.8 +12.7 +21.8 0
07 18.09 СВ 4 35 км н/о +13.6 +7.6 67 +12 +12 1020.4 1006.0
08 18.09 СВ 4 40 км н/о +15.2 +7.7 61 +14 +14 1020.8 1006.5
09 18.09 СВ 8
{12}
35 км н/о +17.0 +8.2 56 +16 +16 1020.9 1006.7 0
10 18.09 СВ 4 30 км н/о +19.2 +7.9 48 +20 +20 1020.7 1006.6
11 18.09 СВ 4 30 км н/о +21.2 +7.8 42 +22 +22 комфорт 1020.6 1006.6
12 18.09 СВ 8-13
{14}
28 км н/о +22.1 +6.7 37 +23 +23 комфорт 1020.5 1006.5 0
13 18.09 СВ 5 26 км н/о +22.9 +5.3 32 +23 +23 комфорт 1020.4 1006.4
14 18.09 СВ 5 23 км н/о +23.8 +3.7 27 +23 +23 комфорт 1020.0 1006.1
15 18.09 СВ 8
{14}
24 км н/о +23.5 +2.3 25 +23 +23 комфорт 1019.7 1005.8 0
16 18.09 СВ 5 27 км н/о +22.7 +1.6 25 +22 +22 комфорт 1019.8 1005.8
17 18.09 СВ 5 30 км н/о +21.6 -1.0 22 +21 +21 комфорт 1020.0 1006.0
18 18.09 СВ 7
{14}
60 км н/о +19.9 -1.9 23 +19 +19 1020.6 1006.5 +12.8 +24.0 0
19 18.09 СВ 3 60 км н/о +18.4 0.0 29 +19 +19 1021.5 1007.3
20 18.09 СВ 2 55 км н/о +16.2 +1.1 36 +16 +16 1022.2 1007.9
21 18.09 СВ 4
{8}
60 км н/о +15.3 +1.4 39 +14 +14 1022.9 1008.5 0
22 18.09 СВ 3 60 км н/о +15.2 +1.7 40 +15 +15 1023.0 1008.6
23 18.09 СВ 3 60 км н/о +13.5 +2.1 46 +13 +13 1023.1 1008.6
00 19.09 СВ 5
{7}
60 км н/о +13.4 +3.2 50 +12 +12 1023.0 1008.5 0
01 19.09 СВ 3 60 км н/о +13.5 +3.6 51 +13 +13 1023.1 1008.6
02 19.09 СВ 3 60 км н/о +12.8 +3.7 54 +12 +12 1023.0 1008.5
03 19.09 СВ 5
{9}
60 км н/о +11.8 +4.0 59 +9 +9 1022.9 1008.4 0
04 19.09 СВ 3 60 км н/о +11.1 +3.9 61 +10 +10 1022.9 1008.3
05 19.09 СВ 3 60 км н/о +10.6 +3.8 63 +9 +9 1023.1 1008.5
06 19.09 СВ 6
{9}
50 км н/о +10.4 +3.9 64 +7 +7 1023.3 1008.7 +10.1 +19.8 0
07 19.09 СВ 3 45 км н/о +11.7 +3.9 59 +10 +10 1023.6 1009.0
08 19.09 СВ 3 55 км н/о +13.8 +3.8 51 +13 +13 1024.1 1009.6
09 19.09 СВ 6
{12}
55 км н/о +16.1 +4.2 45 +15 +15 1024.2 1009.9 0
10 19.09 СВ 4 45 км н/о +18.3 +3.3 37 +18 +18 1023.9 1009.7
11 19.09 СВ 3 40 км н/о +21.0 +2.3 29 +22 +22 комфорт 1023.3 1009.2
12 19.09 СВ 8-14
{14}
19 км н/о +21.3 +1.0 26 +21 +21 комфорт 1023.0 1008.9 0
13 19.09 СВ 4 30 км н/о +22.1 +1.1 25 +22 +22 комфорт 1022.3 1008.3
14 19.09 СВ 4 30 км н/о +22.7 +1.1 24 +22 +22 комфорт 1021.9 1007.9
15 19.09 СВ 8
{14}
50 км н/о +23.0 +1.3 24 +22 +22 комфорт 1021.3 1007.3 0
16 19.09 СВ 4 30 км н/о +22.7 +1.1 24 +22 +22 комфорт 1021.2 1007.2
17 19.09 СВ 4 35 км н/о +21.6 +1.3 26 +21 +21 комфорт 1021.1 1007.1
18 19.09 СВ 6
{12}
60 км н/о +20.1 +1.0 28 +20 +20 1021.4 1007.3 +10.4 +23.3 0
19 19.09 СВ 3 60 км н/о +18.4 +1.4 32 +19 +19 1022.1 1007.9
20 19.09 СВ 3 60 км н/о +17.0 +2.2 37 +17 +17 1022.5 1008.2
21 19.09 СВ 5
{9}
60 км н/о +16.1 +2.8 41 +15 +15 1022.8 1008.5 0
22 19.09 СВ 3 60 км н/о +15.7 +2.8 42 +16 +16 1022.6 1008.3
23 19.09 СВ 2 60 км н/о +15.1 +2.6 43 +15 +15 1022.3 1007.9
00 20.09 СВ 5
{8}
60 км н/о +14.5 +2.4 44 +13 +13 1022.0 1007.6 0

 

Местоположение метеостанции Пуатье (Франция): широта 46.58 долгота 0.30 высота над уровнем моря 120 м.

В архиве по умолчанию представлена погода в Пуатье за последнюю неделю. Архивные данные за месяц целиком и за предыдущие месяцы, начиная с января 2011 года, Вы можете получить, выбрав интересующий диапазон дат из раскрывающегося списка и нажав кнопку "Ввод!".


*Определитесь, кто Вы:
робот инопланетянин человек

Внимание! Время в таблицах - всемирное. Для получения местного времени необходимо прибавить поправку, которая равна 1 ч.

Смотрите также архив погоды в соседних городах и на ближайших метеорологических станциях:

Погода в Ниоре (Франция) (61 км)
Погода в Туре (Франция) (102 км)
Погода в Лиможе (Франция) (104 км)
Погода в Коньяке (Франция) (112 км)
Погода в Шатору (Франция) (112 км)
Погода в Марсе (Франция) (119 км)
Погода в Ла-Рошеле (Франция) (121 км)
Погода в Бокузе (Франция) (121 км)
Погода в Ла-Рошель аэропорту (Франция) (123 км)
Погода в Ла-Рош-сюр-Йоне (Франция) (129 км)

Пояснения к столбцам:

Ветер - указаны скорость ветра в м/с - средняя за 10 мин, порывы в срок и между сроками (в фигурных скобках) и направление, откуда дует ветер: С - северный, СВ - северо-восточный, В - восточный, ЮВ - юго-восточный, Ю - южный, ЮЗ - юго-западный, З - западный, СЗ - северо-западный.
Видимость - горизонтальная дальность видимости в метрах или километрах. При видимости от 1 до 10 км при отсутствии осадков обычно наблюдается дымка, при ухудшении видимости до 1 км и менее - туман. В сухую погоду видимость может ухудшаться дымом, пылью или мглою.
Явления - указаны атмосферные явления, наблюдавшиеся в срок или в последний час перед сроком; фигурными скобками обозначены явления, наблюдавшиеся между сроками (за 1-3 часа до срока); квадратными скобками обозначены град или гололедные отложения с указанием их диаметра в мм.
Облачность - указаны через наклонную черту общая и нижняя облачность в баллах и высота нижней границы облаков в метрах; квадратными скобками обозначены формы облаков: Ci - перистые, Cs - перисто-слоистые, Cc - перисто-кучевые, Ac - высококучевые, As - высокослоистые, Sc - слоисто-кучевые, Ns - слоисто-дождевые, Cu - кучевые, Cb - кучево-дождевые. Подробнее классификацию облаков см. в Атласе облаков (PDF).
T - Температура воздуха - температура, измеренная на высоте 2 м над землей.
Td - Температура точки росы - температура, при понижении до которой содержащийся в воздухе водяной пар достигнет насыщения.
f - Относительная влажность воздуха - влажноcть воздуха, измеренная на высоте 2 м над землей.
Te - Эффективная температура - температура, которую ощущает одетый по сезону человек в тени. Характеристика душности погоды. При расчете учитывается влияние влажности воздуха и скорости ветра на теплоощущения человека.
Tes - Эффективная температура на солнце - температура, которую ощущает человек, с поправкой на солнечный нагрев. Характеристика знойности погоды. Зависит от высоты солнца над горизонтом, облачности и скорости ветра. Ночью, в пасмурную погоду, а также при ветре 12 м/с и более поправка равна нулю.
P - Атмосферное давление - приведенное к уровню моря атмосферное давление.
Po - Атмосферное давление - измеренное на уровне метеостанции атмосферное давление.
Tmin - Минимальная температура - минимум температуры воздуха на высоте 2 м над землей.
Tmax - Максимальная температура - максимум температуры воздуха на высоте 2 м над землей.
R - Количество осадков - Количество выпавших осадков за период времени, мм. При наведении курсора мыши на число - период времени, за который выпало указанное количество осадков.
R24 - Количество осадков - Количество выпавших осадков за 24 часа, мм.
S - Снежный покров - Высота снежного покрова, см. При наведении курсора мыши на число - состояние снежного покрова и степень покрытия местности в баллах.